Regional Weather Roundup
Issued by NWS

Home | Current Version | Previous Version | Graphics & Text | Print | Product List | Glossary On
Versions: 1 2 3 4 5 6 7 8 9 10 11 12 13 14 15 16 17 18 19 20 21 22 23 24 25 26 27 28 29 30 31 32 33 34 35 36 37 38 39 40 41 42 43 44 45 46 47 48 49 50
000
ASUS45 KTFX 181910
RWRMT
MONTANA REGIONAL WEATHER ROUNDUP
NATIONAL WEATHER SERVICE GREAT FALLS MT
1200 PM MST WED JAN 18 2017

NOTE: "FAIR" INDICATES FEW OR NO CLOUDS BELOW 12000 FEET WITH NO
SIGNIFICANT WEATHER AND/OR OBSTRUCTIONS TO VISIBILITY.

MTZ001>007-043-182000-
WEST OF THE DIVIDE

CITY           SKY/WX    TMP DP  RH WIND       PRES   REMARKS
KALISPELL      LGT SNOW  27  23  85 CALM      29.70F
MISSOULA       CLOUDY    24  19  81 W5        29.77F
BUTTE          CLOUDY    34  21  59 N6        29.77F WCI  29
MULLAN PASS    SNOW      30  29  96 VRB7G21   29.65F VSB 1/4 WCI  23
ANACONDA         N/A     45  25  45 S20G33    29.73S
DEER LODGE       N/A     43  27  52 S9G18     29.72F
EUREKA           N/A     32  30  93 CALM      29.65F
HAMILTON         N/A     48  27  43 NE6       29.73F
PLAINS           N/A     28  20  72 CALM      29.76S
RONAN            N/A     24  20  85 MISG      29.76F
$$

MTZ008-052>055-182000-
SOUTHWEST MONTANA

CITY           SKY/WX    TMP DP  RH WIND       PRES   REMARKS
BOZEMAN        CLOUDY    27  18  69 E6        29.78F WCI  20
DILLON         CLOUDY    38  16  40 SW15      29.82F WCI  29
W YELLOWSTONE  CLOUDY     9   7  92 CALM      30.01F
ENNIS          MOSUNNY   32  18  55 S28       29.88F WCI  18
TWIN BRIDGES     N/A     32  15  49 S13       29.84F WCI  22
$$

MTZ009-010-012-014-046-048-049-054-182000-
EAST SLOPES AND CENTRAL MONTANA

CITY           SKY/WX    TMP DP  RH WIND       PRES   REMARKS
CUT BANK       CLOUDY    46  34  62 SW21      29.49S
GREAT FALLS    CLOUDY    45  27  49 SW12      29.59S
MALMSTROM AFB  CLOUDY    46  28  48 SW24G31   29.58S
HELENA         CLOUDY    26  18  71 CALM      29.72F
AUGUSTA          N/A     44  32  64 SW25      29.55F
BOWMANS CRNR     N/A     39  24  56 S18       29.57S WCI  29
CHOTEAU          N/A     46  32  57 S15       29.55F
CONRAD           N/A     42  35  76 S10       29.57F
POWER            N/A     40  28  62 S21       29.55F
RAYNESFORD     PTSUNNY   55  22  27 E6        29.59F
ULM              N/A     44  28  52 MISG      29.60F
$$

MTZ011-013-016-021-045-047-050-051-182000-
NORTH CENTRAL MONTANA

CITY           SKY/WX    TMP DP  RH WIND       PRES   REMARKS
HAVRE          MOSUNNY   44  30  57 SW21      29.51S
LEWISTOWN      CLOUDY    45  25  45 SW16      29.59F
N BAR RANCH      N/A     61  16  17 W15G23    29.60S
CHINOOK          N/A     52  28  40 W18       29.47F
DENTON           N/A     45  28  50 SW10      29.53F
FORT BENTON      N/A     52  27  37 MISG      29.56S
GEYSER           N/A     51  26  37 W23G31    29.55F
GRASS RANGE    PTSUNNY   57  23  26 W20       29.54F
JUDITH GAP       N/A     46  23  40 SW29G35   29.62F
ROY              N/A     55  27  33 MISG      29.55S
STANFORD         N/A     49  28  43 SW7       29.57F
WINIFRED         N/A     49  27  42 W15G23    29.56F
$$

MTZ017>020-022>027-061-062-182000-
NORTHEAST MONTANA

CITY           SKY/WX    TMP DP  RH WIND       PRES   REMARKS
GLASGOW        CLOUDY    36  28  73 SE10      29.52F WCI  28
JORDAN           N/A     46  27  47 S9        29.55F
SIDNEY         CLOUDY    34  24  67 SW23      29.60F WCI  22
WOLF POINT     CLOUDY    35  25  66 E5        29.56F
PLENTYWOOD       N/A     37  25  60 SE5       29.54F
POPLAR           N/A     43  27  52 S7        29.57F
SCOBEY           N/A     34  22  61 S2        29.54F
$$

MTZ028>42-056>058-182000-
SOUTHCENTRAL AND SOUTHEAST MONTANA

CITY           SKY/WX    TMP DP  RH WIND       PRES   REMARKS
BAKER          SUNNY     35  24  64 SW7       29.68F WCI  29
BILLINGS       CLOUDY    43  22  43 SW16G31   29.66F
LIVINGSTON     CLOUDY    47  13  25 SW37G56   29.70F
MILES CITY     CLOUDY    30  19  63 S9        29.65F WCI  22
BIG TIMBER     SUNNY     48  16  27 W24       29.71S
FORSYTH          N/A     30  21  69 SE5       29.64F
HARLOWTON      PTSUNNY   48  20  32 W22G35    29.62F
LAUREL           N/A     41  19  41 SW23      29.68F
$$

REGIONAL REPORTS...DAKOTAS

CITY           SKY/WX    TMP DP  RH WIND       PRES   REMARKS
WILLISTON      CLOUDY    36  25  64 SW7       29.60F WCI  30
MINOT          CLOUDY    43  28  55 SW13      29.60F
DICKINSON      SUNNY     38  26  62 S16       29.63F WCI  29
BEACH            N/A     37  27  65 S14       29.66F WCI  29
CROSBY           N/A     34  27  75 S24       29.55F WCI  21
TIOGA            N/A     36  28  75 SW23      29.59F WCI  24
WATFORD CITY     N/A     41  27  56 SW13      29.60F
BISMARCK       CLOUDY    30  22  72 E5        29.70F
GRAND FORKS    CLOUDY    32  32 100 S8        29.68F WCI  25
FARGO          SUNNY     34  25  69 S9        29.73F WCI  27
BUFFALO SD       N/A     35  22  58 W6        29.63F WCI  30
RAPID CITY     CLOUDY    34  26  72 SW6       29.71F WCI  29
$$

REGIONAL REPORTS...WYOMING/IDAHO/WASHINGTON

CITY           SKY/WX    TMP DP  RH WIND       PRES   REMARKS
GILLETTE       CLOUDY    46  23  40 SW14      29.70F
SHERIDAN       CLOUDY    28  16  60 MISG      29.70F
BUFFALO WY     CLOUDY    48  22  35 CALM      29.71F
CODY           CLOUDY    22  13  68 N3        29.77F
YELLOWSTONE LA   N/A     10   5  80 CALM      29.99F
IDAHO FALLS    CLOUDY    11   6  81 N8        30.06F WCI  -1
SALMON         CLOUDY     7   1  78 CALM      30.00F
BOISE          LGT SNOW  22  18  85 N3        30.00F VSB 3/4
SPOKANE        CLOUDY    38  32  79 SE15G22   29.61F WCI  29
$$

REGIONAL REPORTS...ALBERTA

CITY           SKY/WX    TMP DP  RH WIND       PRES   REMARKS
EDMONTON       PTSUNNY   45  27  49 SW7       29.18S
CALGARY        MOSUNNY   41  30  65 CALM      29.27F
LETHBRIDGE     PTSUNNY   43  32  65 VRB7      29.41F
MEDICINE HAT   PTSUNNY   43  36  75 S14G25    29.38R
WATERTON GATE    N/A     45  32  61 SW32G51     N/A
CARDSTON         N/A     48  30  49 SW12G21     N/A
MILK RIVER       N/A     43  34  70 SW29G40     N/A
ONEFOUR          N/A     41  30  65 SE3         N/A
$$

REGIONAL REPORTS...SASKATCHEWAN

CITY           SKY/WX    TMP DP  RH WIND       PRES   REMARKS
SWIFT CURRENT  SUNNY     45  34  65 SW13G25   29.38R
REGINA         PTSUNNY   36  30  80 SE10      29.44F WCI  28
SASKATOON      CLOUDY    41  32  70 S20       29.30F
VAL MARIE        N/A     36  28  75 SW3         N/A
ASSINIBOIA       N/A     41  28  60 SW9         N/A
$$



USA.gov is the U.S. government's official web portal to all federal, state and local government web resources and services.